RH
9 7 7 7 9 10 13 36 100 100 100 100 100 99 100 100 100 81 97 82 65 75 73 73 68 57 45 53 43 52 46 39 32 30 29 26 34 26
9 7 7 7 10 10 12 29 100 100 100 100 100 100 100 100 100 100 96 83 82 87 78 82 78 71 47 54 49 63 62 45 34 32 30 30 30 30
8 8 8 8 10 10 12 29 100 100 100 100 100 100 100 100 100 100 100 78 83 84 81 72 62 65 46 43 54 62 70 50 39 36 35 30 33 32
8 8 8 8 10 11 12 36 100 100 100 100 100 100 100 100 100 96 80 86 99 86 86 76 56 62 53 34 34 58 62 48 44 37 38 32 32 34
8 8 8 9 11 11 12 23 100 100 100 100 100 100 100 100 100 100 96 100 100 88 76 70 57 64 53 41 35 52 41 55 53 40 37 44 31 37
8 8 8 10 11 11 11 17 90 100 100 100 100 100 100 100 100 100 100 100 100 86 87 65 63 60 46 33 35 36 36 57 49 45 39 42 32 38
7 7 7 9 11 12 10 16 66 100 100 100 100 100 100 100 100 100 100 88 84 82 92 79 74 76 47 40 28 25 40 48 42 50 43 40 35 33
6 6 7 8 10 11 9 12 34 100 100 100 100 100 100 100 100 100 100 94 98 100 85 73 73 72 68 47 39 36 41 30 40 47 43 52 47 36
6 6 6 8 10 9 9 11 18 100 100 100 100 100 100 100 100 100 97 100 87 100 100 86 100 89 66 34 30 30 20 20 31 38 42 43 32 30
6 5 6 6 8 9 8 10 14 95 100 100 100 100 100 100 100 100 100 100 99 100 100 100 100 98 72 40 32 28 19 26 36 40 42 51 38 26
5 5 5 6 7 8 8 9 14 62 100 100 100 100 100 100 100 100 100 100 100 98 89 99 96 88 78 44 37 24 22 22 28 34 33 41 25 28
5 5 5 6 6 7 7 9 12 28 100 100 100 100 100 100 100 100 100 100 100 100 100 95 64 82 75 37 35 26 24 25 33 30 29 20 21 29
4 5 5 5 6 7 7 8 10 32 82 100 100 100 100 100 100 100 100 100 100 100 100 82 93 64 66 55 40 38 28 27 29 27 24 21 22 30
4 5 5 5 6 6 7 7 10 19 38 100 100 100 100 100 100 100 100 100 100 100 100 100 93 92 72 68 69 56 43 34 31 29 27 22 21 28
4 4 5 5 6 6 8 7 10 14 25 63 100 100 100 100 100 100 100 100 100 100 100 100 95 99 91 90 85 76 60 68 57 40 33 27 22 23
4 4 5 5 6 6 6 7 8 14 21 40 100 100 100 100 100 100 100 100 100 100 100 100 100 100 100 85 83 80 74 49 68 57 48 40 30 26
4 4 5 5 6 6 7 8 8 11 18 30 99 100 100 100 100 100 100 100 100 100 100 100 100 100 100 100 78 83 82 76 85 72 57 48 33 32
4 5 6 5 6 6 7 7 8 10 15 23 64 100 100 100 100 100 100 100 100 100 100 100 100 100 100 100 98 79 78 92 72 62 61 53 44 38
4 5 6 6 6 7 7 8 8 9 16 17 34 86 100 100 100 100 100 100 100 100 100 100 100 100 100 100 100 100 83 86 96 81 80 75 70 57
4 5 5 5 6 6 7 8 9 10 13 19 22 39 56 100 100 100 100 100 100 100 100 100 100 100 99 100 100 100 94 100 89 100 93 84 54 66
4 5 5 5 6 6 7 8 8 10 12 12 19 25 37 50 100 100 100 100 100 100 100 100 100 100 100 100 100 100 100 100 100 100 100 100 92 81
5 5 6 6 6 7 7 8 8 9 10 12 13 18 24 31 53 100 100 100 100 100 100 100 100 100 100 100 100 100 100 100 100 100 100 93 100 87
5 6 6 6 7 7 8 8 8 9 10 10 12 16 25 20 24 50 93 100 100 100 100 100 100 100 100 100 100 100 97 100 100 100 100 88 100 100
Wind_Speed
50 51 56 79 101 121 135 132 126 118 114 104 103 97 98 91 92 87 81 79 77 78 73 65 60 56 53 45 39 33 33 31 25 24 21 21 12 14
50 51 56 77 99 118 135 133 131 122 117 109 100 101 104 99 93 86 84 79 82 79 73 69 61 61 57 50 46 38 36 33 29 24 22 25 16 12
51 53 59 79 96 117 134 136 133 121 121 116 108 104 109 107 105 92 88 85 83 82 73 71 67 64 53 51 48 42 43 34 33 27 27 26 25 13
54 56 61 78 94 116 133 140 139 124 121 119 113 107 107 108 107 104 97 90 83 81 78 75 70 68 59 56 52 47 44 36 33 33 30 29 29 21
59 60 64 80 94 116 133 142 142 130 125 129 120 113 111 109 107 101 99 89 83 84 81 78 75 70 64 58 53 51 47 41 40 36 34 33 27 26
63 65 68 80 95 115 133 143 144 137 132 126 121 118 110 111 112 110 105 99 93 86 82 82 82 75 68 64 57 54 51 48 44 40 37 34 31 25
67 69 72 81 96 116 130 145 148 149 140 130 130 122 115 111 111 108 100 94 94 88 84 76 73 74 73 66 60 57 55 49 48 43 39 35 33 26
70 74 75 83 99 117 126 144 152 154 143 135 130 127 124 117 112 106 102 96 95 92 88 80 81 79 75 69 62 64 55 53 51 46 43 38 37 28
72 76 79 86 98 112 122 141 153 159 153 144 133 129 125 122 115 110 108 101 95 92 91 85 85 78 76 69 67 65 55 54 52 50 43 40 37 30
71 77 81 85 94 109 121 141 156 162 157 147 137 137 133 125 119 116 110 103 101 96 95 91 86 82 78 73 69 63 59 55 54 52 48 44 39 36
71 76 82 86 93 106 120 138 157 162 159 152 149 139 136 132 123 116 109 104 103 101 99 93 88 84 81 77 71 61 61 55 52 52 48 41 39 43
69 74 81 86 93 102 114 136 157 161 163 154 149 139 133 135 127 120 113 107 105 105 102 99 96 90 88 78 77 66 61 59 51 49 48 39 42 43
67 74 81 86 90 99 112 134 152 166 170 166 156 143 137 134 130 123 115 112 109 109 105 101 99 99 91 85 83 74 65 61 52 52 45 41 47 45
66 73 80 85 89 95 110 125 151 168 171 168 157 148 145 137 134 131 123 117 115 111 109 102 98 96 94 89 83 76 73 69 71 63 59 47 49 49
65 72 77 84 88 93 105 119 148 163 167 167 160 150 148 139 133 129 126 122 119 118 115 108 102 102 97 92 88 82 80 75 70 63 63 60 57 54
63 69 74 81 85 92 99 111 132 160 166 167 164 152 147 142 140 135 131 128 122 120 118 116 109 108 102 98 93 87 79 78 77 69 71 66 58 53
60 67 71 79 84 89 96 106 125 150 162 168 168 148 140 144 139 135 136 132 130 125 122 118 116 112 106 102 102 92 87 82 79 74 72 70 61 60
59 64 69 76 82 86 92 101 114 142 160 166 167 164 152 143 141 139 137 133 131 129 122 119 116 110 109 107 100 96 91 88 84 78 79 72 71 65
58 62 66 71 78 82 88 98 107 129 153 162 168 166 167 149 149 143 143 138 136 132 129 127 121 118 109 108 101 98 97 94 85 83 82 74 74 72
57 61 64 67 71 79 85 93 103 118 143 159 166 168 168 164 149 149 145 145 139 134 133 130 124 120 115 113 105 101 100 97 94 89 90 86 82 79
55 60 63 65 68 75 82 89 94 108 123 138 162 169 170 168 164 155 148 145 140 140 138 133 130 127 124 119 109 106 105 100 98 95 94 89 83 79
53 57 60 64 68 73 79 86 92 96 111 124 142 161 167 169 168 169 158 151 148 148 143 140 134 132 128 124 117 113 114 108 106 102 100 95 87 80
51 56 60 63 68 74 77 83 89 93 98 109 125 146 156 166 172 172 169 174 154 153 149 147 143 138 132 128 124 120 120 115 111 109 104 95 90 88
Wind_Direction
249 240 225 211 206 204 203 200 198 203 206 206 206 211 211 212 216 219 218 219 223 223 222 222 226 227 230 235 239 248 235 251 259 259 277 281 306 316
244 237 223 208 205 202 202 200 197 202 204 204 207 209 209 211 213 215 215 220 221 220 221 221 225 224 229 235 239 243 245 246 259 258 266 270 286 301
239 233 220 206 203 201 201 198 196 199 203 204 207 207 208 210 214 215 215 217 219 218 219 222 224 225 227 233 235 240 244 251 250 261 262 266 271 291
235 229 218 205 202 200 199 197 195 198 200 203 206 206 209 212 214 217 221 216 216 219 221 223 222 226 231 232 234 234 241 240 245 259 262 262 271 283
231 225 215 206 202 200 198 198 194 197 199 205 207 209 212 213 215 216 215 216 218 219 221 221 221 227 227 230 231 230 238 237 242 252 257 262 262 275
227 221 213 206 201 199 198 198 195 197 199 201 204 209 211 213 217 218 219 223 223 220 224 225 225 227 228 229 230 235 236 236 244 244 248 252 256 273
223 219 212 205 202 199 198 198 196 200 201 201 204 206 208 213 216 218 218 220 222 222 222 225 227 229 231 228 228 237 232 238 243 239 237 243 250 269
220 217 212 206 201 200 199 198 197 199 198 202 206 207 208 211 214 216 216 215 216 220 226 225 226 225 227 228 228 228 231 236 237 235 230 237 245 257
219 216 213 207 203 201 200 198 198 199 201 202 203 205 208 210 212 213 215 215 218 221 223 223 225 224 227 225 229 226 231 238 236 237 230 236 246 249
217 214 214 209 206 202 202 199 196 199 200 203 203 207 209 210 212 214 215 217 219 218 219 221 222 221 224 228 227 226 230 233 235 237 230 234 245 248
216 213 214 210 208 204 201 199 196 199 199 203 204 208 209 212 211 213 215 217 219 220 220 218 220 222 223 225 225 226 228 228 232 230 230 249 259 248
217 211 212 211 209 206 202 199 197 198 200 203 203 207 207 210 212 214 215 216 220 220 217 220 222 224 225 224 222 226 231 229 231 231 233 255 254 243
215 210 209 212 209 206 202 201 199 198 201 202 204 206 207 211 211 213 215 216 217 219 220 224 222 224 225 225 227 227 229 227 231 235 238 247 249 240
213 211 207 210 209 207 203 203 200 199 202 203 203 206 209 209 210 213 214 216 217 218 221 219 221 222 223 226 228 232 225 227 234 240 239 242 244 243
211 210 206 208 209 207 205 204 201 202 202 203 203 206 207 207 211 214 215 217 219 220 220 220 221 219 223 225 229 228 228 234 233 236 235 236 245 245
211 210 207 206 208 208 207 205 205 203 203 203 203 205 208 210 212 213 216 218 218 220 219 223 222 223 225 230 231 226 227 233 230 238 236 238 245 242
208 208 206 205 206 208 208 205 205 204 201 204 204 203 205 211 211 213 216 217 220 222 223 222 224 225 227 225 227 230 233 230 232 237 233 237 242 244
206 206 206 204 206 207 208 207 207 205 206 204 206 206 205 209 210 212 214 216 218 220 221 221 222 221 225 226 227 233 236 233 234 237 232 238 243 243
205 204 206 203 205 206 209 208 207 208 207 205 207 208 208 208 213 213 214 216 217 220 224 223 223 224 227 228 228 232 239 234 233 232 234 236 239 243
202 202 205 206 205 206 208 208 209 208 208 209 208 211 211 211 210 213 214 215 218 221 223 222 225 227 231 229 228 229 233 229 234 228 231 235 241 241
200 201 204 206 207 205 207 210 209 210 211 215 211 212 213 212 213 213 216 216 219 221 223 225 227 227 228 225 223 229 228 231 229 232 233 231 234 234
202 203 204 206 208 207 207 210 210 211 212 214 216 214 215 216 216 217 216 218 219 221 224 224 225 227 226 227 225 224 227 229 230 231 231 233 234 232
205 205 206 207 208 209 209 210 212 212 214 215 214 217 217 218 217 221 220 222 222 221 223 225 225 227 226 225 227 226 229 229 229 231 230 233 230 229